Time,TemperatureF,DewpointF,PressureIn,WindDirection,WindDirectionDegrees,WindSpeedMPH,WindSpeedGustMPH,Humidity,HourlyPrecipIn,Conditions,Clouds,dailyrainin,SolarRadiationWatts/m^2,SoftwareType,DateUTC
2013-04-04 00:32:00,37.0,35.0,-100.00,South,171,1.0,11.0,91,-99.99,,,0.00,0.000000,,2013-04-04 07:32:00,
2013-04-04 01:32:00,37.0,35.0,-100.00,NE,44,1.0,5.0,94,-99.99,,,0.00,0.000000,,2013-04-04 08:32:00,
2013-04-04 01:43:00,37.0,35.0,-100.00,NE,44,1.0,5.0,94,-99.99,,,0.00,0.000000,,2013-04-04 08:43:00,
2013-04-04 01:52:00,37.0,35.0,-100.00,NE,44,1.0,5.0,94,-99.99,,,0.00,0.000000,,2013-04-04 08:52:00,
2013-04-04 02:02:00,37.0,35.0,-100.00,NE,44,1.0,5.0,94,-99.99,,,0.00,0.000000,,2013-04-04 09:02:00,
2013-04-04 02:34:00,36.0,34.0,-100.00,NNE,32,1.0,7.0,92,-99.99,,,0.00,0.000000,,2013-04-04 09:34:00,
2013-04-04 03:34:00,36.0,34.0,-100.00,NNW,346,1.0,5.0,92,-99.99,,,0.00,0.000000,,2013-04-04 10:34:00,
2013-04-04 03:43:00,36.0,34.0,-100.00,NNW,346,1.0,5.0,92,-99.99,,,0.00,0.000000,,2013-04-04 10:43:00,
2013-04-04 03:53:00,36.0,34.0,-100.00,NNW,346,1.0,5.0,92,-99.99,,,0.00,0.000000,,2013-04-04 10:53:00,
2013-04-04 04:02:00,36.0,34.0,-100.00,NNW,346,1.0,5.0,92,-99.99,,,0.00,0.000000,,2013-04-04 11:02:00,
2013-04-04 04:33:00,38.0,35.0,-100.00,ESE,110,1.0,7.0,90,-99.99,,,0.00,0.000000,,2013-04-04 11:33:00,
2013-04-04 04:43:00,38.0,35.0,-100.00,ESE,110,1.0,7.0,90,-99.99,,,0.00,0.000000,,2013-04-04 11:43:00,
2013-04-04 04:53:00,38.0,35.0,-100.00,ESE,110,1.0,7.0,90,-99.99,,,0.00,0.000000,,2013-04-04 11:53:00,
2013-04-04 05:02:00,38.0,35.0,-100.00,ESE,110,1.0,7.0,90,-99.99,,,0.00,0.000000,,2013-04-04 12:02:00,
2013-04-04 05:33:00,35.0,35.0,-100.00,NNE,16,1.0,6.0,100,0.01,,,0.01,0.000000,,2013-04-04 12:33:00,
2013-04-04 05:43:00,35.0,35.0,-100.00,NNE,16,1.0,6.0,100,0.01,,,0.01,0.000000,,2013-04-04 12:43:00,
2013-04-04 05:52:00,35.0,35.0,-100.00,NNE,16,1.0,6.0,100,0.01,,,0.01,0.000000,,2013-04-04 12:52:00,
2013-04-04 06:33:00,37.0,37.0,-100.00,West,281,1.0,6.0,100,-99.99,,,0.01,0.000000,,2013-04-04 13:33:00,
2013-04-04 06:43:00,37.0,37.0,-100.00,West,281,1.0,6.0,100,-99.99,,,0.01,0.000000,,2013-04-04 13:43:00,
2013-04-04 06:52:00,37.0,37.0,-100.00,West,281,1.0,6.0,100,-99.99,,,0.01,0.000000,,2013-04-04 13:52:00,
2013-04-04 07:02:00,37.0,37.0,-100.00,West,281,1.0,6.0,100,-99.99,,,0.01,0.000000,,2013-04-04 14:02:00,
2013-04-04 07:33:00,39.0,39.0,-100.00,ENE,63,2.0,7.0,100,-99.99,,,0.01,1.000000,,2013-04-04 14:33:00,
2013-04-04 07:43:00,39.0,39.0,-100.00,ENE,63,2.0,7.0,100,-99.99,,,0.01,1.000000,,2013-04-04 14:43:00,
2013-04-04 07:52:00,39.0,39.0,-100.00,ENE,63,2.0,7.0,100,-99.99,,,0.01,1.000000,,2013-04-04 14:52:00,
2013-04-04 08:02:00,39.0,39.0,-100.00,ENE,63,2.0,7.0,100,-99.99,,,0.01,1.000000,,2013-04-04 15:02:00,
2013-04-04 08:34:00,41.0,41.0,-100.00,East,99,2.0,10.0,100,0.01,,,0.02,26.000000,,2013-04-04 15:34:00,
2013-04-04 08:43:00,41.0,41.0,-100.00,East,99,2.0,10.0,100,0.01,,,0.02,26.000000,,2013-04-04 15:43:00,
2013-04-04 08:53:00,41.0,41.0,-100.00,East,99,2.0,10.0,100,0.01,,,0.02,26.000000,,2013-04-04 15:53:00,
2013-04-04 09:02:00,41.0,41.0,-100.00,East,99,2.0,10.0,100,0.01,,,0.02,26.000000,,2013-04-04 16:02:00,
2013-04-04 09:33:00,46.0,46.0,-100.00,ESE,107,2.0,10.0,100,0.00,,,-99.99,113.000000,,2013-04-04 16:33:00,
2013-04-04 09:43:00,46.0,46.0,-100.00,ESE,107,2.0,10.0,100,0.00,,,-99.99,113.000000,,2013-04-04 16:43:00,
2013-04-04 09:53:00,46.0,46.0,-100.00,ESE,107,2.0,10.0,100,0.00,,,-99.99,113.000000,,2013-04-04 16:53:00,
2013-04-04 10:02:00,46.0,46.0,-100.00,ESE,107,2.0,10.0,100,0.00,,,-99.99,113.000000,,2013-04-04 17:02:00,
2013-04-04 10:33:00,47.0,45.0,-100.00,SW,230,1.0,10.0,92,0.00,,,0.02,109.000000,,2013-04-04 17:33:00,
2013-04-04 10:43:00,47.0,45.0,-100.00,SW,230,1.0,10.0,92,0.00,,,0.02,109.000000,,2013-04-04 17:43:00,
2013-04-04 10:52:00,47.0,45.0,-100.00,SW,230,1.0,10.0,92,0.00,,,0.02,109.000000,,2013-04-04 17:52:00,
2013-04-04 11:02:00,47.0,45.0,-100.00,SW,230,1.0,10.0,92,0.00,,,0.02,109.000000,,2013-04-04 18:02:00,
2013-04-04 11:33:00,50.0,46.0,-100.00,North,0,2.0,9.0,87,0.00,,,0.02,195.000000,,2013-04-04 18:33:00,
2013-04-04 11:43:00,50.0,46.0,-100.00,North,0,2.0,9.0,87,0.00,,,0.02,195.000000,,2013-04-04 18:43:00,
2013-04-04 11:52:00,50.0,46.0,-100.00,North,0,2.0,9.0,87,0.00,,,0.02,195.000000,,2013-04-04 18:52:00,
2013-04-04 12:02:00,50.0,46.0,-100.00,North,0,2.0,9.0,87,0.00,,,0.02,195.000000,,2013-04-04 19:02:00,
2013-04-04 12:33:00,50.0,48.0,-100.00,ENE,58,1.0,8.0,93,0.02,,,0.04,214.000000,,2013-04-04 19:33:00,
2013-04-04 12:43:00,50.0,48.0,-100.00,ENE,58,1.0,8.0,93,0.02,,,0.04,214.000000,,2013-04-04 19:43:00,
2013-04-04 12:52:00,50.0,48.0,-100.00,ENE,58,1.0,8.0,93,0.02,,,0.04,214.000000,,2013-04-04 19:52:00,
2013-04-04 13:03:00,50.0,48.0,-100.00,ENE,58,1.0,8.0,93,0.02,,,0.04,214.000000,,2013-04-04 20:03:00,
2013-04-04 13:33:00,50.0,49.0,-100.00,NW,322,1.0,8.0,95,0.06,,,0.10,238.000000,,2013-04-04 20:33:00,
2013-04-04 13:42:00,50.0,49.0,-100.00,NW,322,1.0,8.0,95,0.06,,,0.10,238.000000,,2013-04-04 20:42:00,
2013-04-04 13:53:00,50.0,49.0,-100.00,NW,322,1.0,8.0,95,0.06,,,0.10,238.000000,,2013-04-04 20:53:00,
2013-04-04 14:02:00,50.0,49.0,-100.00,NW,322,1.0,8.0,95,0.06,,,0.10,238.000000,,2013-04-04 21:02:00,
2013-04-04 14:33:00,50.0,48.0,-100.00,SW,222,1.0,4.0,94,0.05,,,0.15,220.000000,,2013-04-04 21:33:00,
2013-04-04 14:43:00,50.0,48.0,-100.00,SW,222,1.0,4.0,94,0.05,,,0.15,220.000000,,2013-04-04 21:43:00,
2013-04-04 14:53:00,50.0,48.0,-100.00,SW,222,1.0,4.0,94,0.05,,,0.15,220.000000,,2013-04-04 21:53:00,
2013-04-04 15:03:00,50.0,48.0,-100.00,SW,222,1.0,4.0,94,0.05,,,0.15,220.000000,,2013-04-04 22:03:00,
2013-04-04 15:33:00,49.0,48.0,-100.00,NNW,340,1.0,8.0,96,0.07,,,0.22,260.000000,,2013-04-04 22:33:00,
2013-04-04 15:43:00,49.0,48.0,-100.00,NNW,340,1.0,8.0,96,0.07,,,0.22,260.000000,,2013-04-04 22:43:00,
2013-04-04 15:53:00,49.0,48.0,-100.00,NNW,340,1.0,8.0,96,0.07,,,0.22,260.000000,,2013-04-04 22:53:00,
2013-04-04 16:02:00,49.0,48.0,-100.00,NNW,340,1.0,8.0,96,0.07,,,0.22,260.000000,,2013-04-04 23:02:00,
2013-04-04 16:32:00,46.0,46.0,-100.00,West,259,1.0,5.0,100,0.06,,,0.28,104.000000,,2013-04-04 23:32:00,
2013-04-04 16:42:00,46.0,46.0,-100.00,West,259,1.0,5.0,100,0.06,,,0.28,104.000000,,2013-04-04 23:42:00,
2013-04-04 16:52:00,46.0,46.0,-100.00,West,259,1.0,5.0,100,0.06,,,0.28,104.000000,,2013-04-04 23:52:00,
2013-04-04 17:02:00,46.0,46.0,-100.00,West,259,1.0,5.0,100,0.06,,,0.28,104.000000,,2013-04-05 00:02:00,
2013-04-04 17:33:00,47.0,46.0,-100.00,NNW,342,4.0,16.0,97,0.08,,,0.36,106.000000,,2013-04-05 00:33:00,
2013-04-04 17:42:00,47.0,46.0,-100.00,NNW,342,4.0,16.0,97,0.08,,,0.36,106.000000,,2013-04-05 00:42:00,
2013-04-04 17:52:00,47.0,46.0,-100.00,NNW,342,4.0,16.0,97,0.08,,,0.36,106.000000,,2013-04-05 00:52:00,
2013-04-04 18:02:00,47.0,46.0,-100.00,NNW,342,4.0,16.0,97,0.08,,,0.36,106.000000,,2013-04-05 01:02:00,
2013-04-04 18:32:00,45.0,45.0,-100.00,NW,314,3.0,16.0,99,0.00,,,0.36,100.000000,,2013-04-05 01:32:00,
2013-04-04 18:42:00,45.0,45.0,-100.00,NW,314,3.0,16.0,99,0.00,,,0.36,100.000000,,2013-04-05 01:42:00,
2013-04-04 18:53:00,45.0,45.0,-100.00,NW,314,3.0,16.0,99,0.00,,,0.36,100.000000,,2013-04-05 01:53:00,
2013-04-04 19:02:00,45.0,45.0,-100.00,NW,314,3.0,16.0,99,0.00,,,0.36,100.000000,,2013-04-05 02:02:00,
2013-04-04 19:32:00,45.0,45.0,-100.00,NW,321,2.0,12.0,100,0.08,,,0.44,32.000000,,2013-04-05 02:32:00,
2013-04-04 19:42:00,45.0,45.0,-100.00,NW,321,2.0,12.0,100,0.08,,,0.44,32.000000,,2013-04-05 02:42:00,
2013-04-04 19:52:00,45.0,45.0,-100.00,NW,321,2.0,12.0,100,0.08,,,0.44,32.000000,,2013-04-05 02:52:00,
2013-04-04 20:02:00,45.0,45.0,-100.00,NW,321,2.0,12.0,100,0.08,,,0.44,32.000000,,2013-04-05 03:02:00,
2013-04-04 20:33:00,43.0,43.0,-100.00,ENE,68,2.0,10.0,100,0.02,,,0.46,2.000000,,2013-04-05 03:33:00,
2013-04-04 20:43:00,43.0,43.0,-100.00,ENE,68,2.0,10.0,100,0.02,,,0.46,2.000000,,2013-04-05 03:43:00,
2013-04-04 20:53:00,43.0,43.0,-100.00,ENE,68,2.0,10.0,100,0.02,,,0.46,2.000000,,2013-04-05 03:53:00,
2013-04-04 21:02:00,43.0,43.0,-100.00,ENE,68,2.0,10.0,100,0.02,,,0.46,2.000000,,2013-04-05 04:02:00,
2013-04-04 21:33:00,42.0,42.0,-100.00,East,94,1.0,16.0,100,0.06,,,0.52,0.000000,,2013-04-05 04:33:00,
2013-04-04 21:42:00,42.0,42.0,-100.00,East,94,1.0,16.0,100,0.06,,,0.52,0.000000,,2013-04-05 04:42:00,
2013-04-04 21:52:00,42.0,42.0,-100.00,East,94,1.0,16.0,100,0.06,,,0.52,0.000000,,2013-04-05 04:52:00,
2013-04-04 22:02:00,42.0,42.0,-100.00,East,94,1.0,16.0,100,0.06,,,0.52,0.000000,,2013-04-05 05:02:00,
2013-04-04 22:32:00,41.0,41.0,-100.00,South,179,1.0,9.0,100,0.02,,,0.54,0.000000,,2013-04-05 05:32:00,
2013-04-04 22:42:00,41.0,41.0,-100.00,South,179,1.0,9.0,100,0.02,,,0.54,0.000000,,2013-04-05 05:42:00,
2013-04-04 22:52:00,41.0,41.0,-100.00,South,179,1.0,9.0,100,0.02,,,0.54,0.000000,,2013-04-05 05:52:00,
2013-04-04 23:02:00,41.0,41.0,-100.00,South,179,1.0,9.0,100,0.02,,,0.54,0.000000,,2013-04-05 06:02:00,